Tiempo cada hora Golce

Hoy, 2 Agosto, Lunes

Tiempo Temperatura Precipitaciones Viento Presión Humedad
00:00 +14°C° 0.1 mm 4 mps 730 mmHg 94%
01:00 +14°C° 0 mm 4 mps 731 mmHg 94%
02:00 +14°C° 0 mm 4 mps 731 mmHg 94%
03:00 +13°C° 0 mm 3 mps 731 mmHg 93%
04:00 +13°C° 0 mm 3 mps 731 mmHg 93%
05:00 +14°C° 0.1 mm 4 mps 732 mmHg 90%
06:00 +14°C° 0.1 mm 4 mps 732 mmHg 86%
07:00 +14°C° 0 mm 5 mps 732 mmHg 85%
08:00 +15°C° 0.1 mm 5 mps 733 mmHg 82%
09:00 +16°C° 0.1 mm 5 mps 733 mmHg 79%
10:00 +17°C° 0.1 mm 5 mps 733 mmHg 76%
11:00 +19°C° 0.2 mm 5 mps 733 mmHg 69%
12:00 +20°C° 0.2 mm 5 mps 733 mmHg 61%
13:00 +22°C° 0.2 mm 6 mps 734 mmHg 54%
14:00 +22°C° 0.2 mm 5 mps 734 mmHg 55%
15:00 +21°C° 0.2 mm 5 mps 734 mmHg 56%
16:00 +21°C° 0.2 mm 4 mps 734 mmHg 56%
17:00 +20°C° 0.2 mm 4 mps 734 mmHg 62%
18:00 +19°C° 0.2 mm 3 mps 734 mmHg 68%
19:00 +18°C° 0.2 mm 2 mps 734 mmHg 74%
20:00 +17°C° 0 mm 2 mps 734 mmHg 77%
21:00 +16°C° 0 mm 2 mps 735 mmHg 80%
22:00 +15°C° 0 mm 2 mps 735 mmHg 83%
23:00 +15°C° 0 mm 2 mps 735 mmHg 84%

Mañana, 3 Agosto, Martes

Tiempo Temperatura Precipitaciones Viento Presión Humedad
00:00 +14°C° 0 mm 2 mps 735 mmHg 85%
01:00 +14°C° 0 mm 2 mps 735 mmHg 87%
02:00 +14°C° 0 mm 2 mps 735 mmHg 87%
03:00 +13°C° 0 mm 2 mps 736 mmHg 87%
04:00 +13°C° 0 mm 2 mps 736 mmHg 87%
05:00 +15°C° 0 mm 2 mps 736 mmHg 82%
06:00 +16°C° 0 mm 2 mps 736 mmHg 76%
07:00 +17°C° 0 mm 2 mps 737 mmHg 70%
08:00 +19°C° 0 mm 2 mps 737 mmHg 64%
09:00 +20°C° 0 mm 2 mps 737 mmHg 58%
10:00 +23°C° 0 mm 2 mps 736 mmHg 51%
11:00 +23°C° 0.2 mm 2 mps 736 mmHg 51%
12:00 +23°C° 0.2 mm 2 mps 736 mmHg 50%
13:00 +24°C° 0.2 mm 1 mps 736 mmHg 49%
14:00 +23°C° 0 mm 1 mps 736 mmHg 50%
15:00 +23°C° 0 mm 1 mps 735 mmHg 51%
16:00 +23°C° 0 mm 1 mps 735 mmHg 52%
17:00 +23°C° 0 mm 1 mps 735 mmHg 57%
18:00 +22°C° 0 mm 1 mps 735 mmHg 62%
19:00 +20°C° 0 mm 2 mps 735 mmHg 66%
20:00 +19°C° 0.6 mm 2 mps 735 mmHg 70%
21:00 +19°C° 0.6 mm 1 mps 735 mmHg 75%
22:00 +18°C° 0.6 mm 1 mps 735 mmHg 79%
23:00 +18°C° 0.4 mm 1 mps 735 mmHg 80%

Pasado mañana, 4 Agosto, Miércoles

Tiempo Temperatura Precipitaciones Viento Presión Humedad
00:00 +18°C° 0.4 mm 1 mps 735 mmHg 81%
01:00 +18°C° 0.4 mm 1 mps 735 mmHg 82%
02:00 +16°C° 0.1 mm 1 mps 735 mmHg 83%
03:00 +16°C° 0.1 mm 1 mps 735 mmHg 84%
04:00 +16°C° 0.1 mm 1 mps 735 mmHg 84%
05:00 +16°C° 0.2 mm 1 mps 735 mmHg 85%
06:00 +18°C° 0.2 mm 1 mps 735 mmHg 85%
07:00 +18°C° 0.2 mm 1 mps 736 mmHg 85%
08:00 +19°C° 0 mm 1 mps 736 mmHg 80%
09:00 +20°C° 0 mm 1 mps 736 mmHg 74%
10:00 +21°C° 0 mm 1 mps 736 mmHg 68%
11:00 +21°C° 0 mm 1 mps 736 mmHg 67%
12:00 +21°C° 0 mm 1 mps 735 mmHg 67%
13:00 +22°C° 0 mm 1 mps 735 mmHg 66%
14:00 +22°C° 0.1 mm 1 mps 735 mmHg 65%
15:00 +22°C° 0.1 mm 1 mps 735 mmHg 63%
16:00 +22°C° 0.1 mm 1 mps 735 mmHg 62%
17:00 +21°C° 0.2 mm 1 mps 735 mmHg 67%
18:00 +20°C° 0.2 mm 2 mps 735 mmHg 71%
19:00 +19°C° 0.2 mm 2 mps 735 mmHg 75%
20:00 +18°C° 0 mm 2 mps 735 mmHg 79%
21:00 +17°C° 0 mm 2 mps 735 mmHg 82%
22:00 +17°C° 0 mm 2 mps 735 mmHg 86%
23:00 +16°C° 0 mm 2 mps 735 mmHg 88%

5 Agosto, Jueves

Tiempo Temperatura Precipitaciones Viento Presión Humedad
00:00 +16°C° 0 mm 2 mps 734 mmHg 90%
01:00 +16°C° 0 mm 2 mps 734 mmHg 92%
02:00 +16°C° 0 mm 2 mps 734 mmHg 92%
03:00 +16°C° 0 mm 2 mps 733 mmHg 92%
04:00 +16°C° 0 mm 2 mps 733 mmHg 91%
05:00 +16°C° 0.3 mm 2 mps 733 mmHg 91%
06:00 +16°C° 0.3 mm 2 mps 733 mmHg 91%
07:00 +17°C° 0.3 mm 2 mps 733 mmHg 91%
08:00 +17°C° 1 mm 3 mps 733 mmHg 92%
09:00 +17°C° 1 mm 3 mps 732 mmHg 93%
10:00 +17°C° 1 mm 3 mps 732 mmHg 94%
11:00 +18°C° 0.4 mm 3 mps 732 mmHg 88%
12:00 +20°C° 0.4 mm 4 mps 732 mmHg 83%
13:00 +21°C° 0.4 mm 4 mps 731 mmHg 77%
14:00 +21°C° 0.4 mm 3 mps 731 mmHg 78%
15:00 +21°C° 0.4 mm 3 mps 730 mmHg 80%
16:00 +21°C° 0.4 mm 3 mps 729 mmHg 82%
17:00 +20°C° 3.5 mm 2 mps 729 mmHg 87%
18:00 +19°C° 3.5 mm 2 mps 729 mmHg 92%
19:00 +18°C° 3.5 mm 2 mps 728 mmHg 98%
20:00 +18°C° 4.1 mm 2 mps 728 mmHg 98%
21:00 +17°C° 4.1 mm 2 mps 727 mmHg 98%
22:00 +17°C° 4.1 mm 3 mps 727 mmHg 98%
23:00 +17°C° 6.1 mm 4 mps 726 mmHg 98%

6 Agosto, Viernes

Tiempo Temperatura Precipitaciones Viento Presión Humedad
00:00 +16°C° 6.1 mm 5 mps 726 mmHg 98%
01:00 +15°C° 6.1 mm 6 mps 726 mmHg 97%
02:00 +15°C° 3.1 mm 6 mps 726 mmHg 97%
03:00 +15°C° 3.1 mm 6 mps 726 mmHg 97%
04:00 +15°C° 3.1 mm 6 mps 726 mmHg 97%
05:00 +15°C° 1.6 mm 7 mps 726 mmHg 96%
06:00 +14°C° 1.6 mm 7 mps 726 mmHg 96%
07:00 +13°C° 1.6 mm 8 mps 727 mmHg 95%
08:00 +15°C° 0.2 mm 7 mps 727 mmHg 94%
09:00 +15°C° 0.2 mm 7 mps 728 mmHg 92%
10:00 +15°C° 0.2 mm 7 mps 728 mmHg 90%
11:00 +17°C° 0.1 mm 7 mps 729 mmHg 84%
12:00 +18°C° 0.1 mm 7 mps 729 mmHg 77%
13:00 +21°C° 0.1 mm 7 mps 729 mmHg 71%
14:00 +21°C° 0.4 mm 6 mps 729 mmHg 69%
15:00 +21°C° 0.4 mm 6 mps 730 mmHg 68%
16:00 +22°C° 0.4 mm 6 mps 730 mmHg 67%
17:00 +21°C° 0.3 mm 5 mps 730 mmHg 72%
18:00 +19°C° 0.3 mm 4 mps 730 mmHg 76%
19:00 +18°C° 0.3 mm 3 mps 730 mmHg 81%
20:00 +18°C° 0 mm 3 mps 730 mmHg 83%
21:00 +17°C° 0 mm 3 mps 731 mmHg 85%
22:00 +16°C° 0 mm 3 mps 731 mmHg 86%
23:00 +16°C° 0 mm 3 mps 731 mmHg 87%

7 Agosto, Sábado

Tiempo Temperatura Precipitaciones Viento Presión Humedad
00:00 +16°C° 0 mm 3 mps 731 mmHg 88%
01:00 +14°C° 0 mm 3 mps 732 mmHg 88%
02:00 +14°C° 0 mm 3 mps 732 mmHg 89%
03:00 +14°C° 0 mm 3 mps 732 mmHg 89%
04:00 +14°C° 0 mm 3 mps 732 mmHg 90%
05:00 +16°C° 0 mm 3 mps 732 mmHg 86%
06:00 +17°C° 0 mm 3 mps 733 mmHg 81%
07:00 +18°C° 0 mm 3 mps 733 mmHg 77%
08:00 +20°C° 0 mm 3 mps 733 mmHg 70%
09:00 +21°C° 0 mm 3 mps 733 mmHg 64%
10:00 +24°C° 0 mm 3 mps 734 mmHg 57%
11:00 +25°C° 0 mm 3 mps 734 mmHg 53%
12:00 +26°C° 0 mm 3 mps 734 mmHg 49%
13:00 +27°C° 0 mm 3 mps 733 mmHg 45%
14:00 +27°C° 0 mm 3 mps 733 mmHg 44%
15:00 +27°C° 0 mm 3 mps 733 mmHg 43%
16:00 +28°C° 0 mm 3 mps 733 mmHg 42%
17:00 +26°C° 0 mm 2 mps 733 mmHg 49%
18:00 +25°C° 0 mm 2 mps 733 mmHg 55%
19:00 +23°C° 0 mm 2 mps 733 mmHg 61%
20:00 +23°C° 0 mm 2 mps 733 mmHg 62%
21:00 +21°C° 0 mm 3 mps 733 mmHg 64%
22:00 +20°C° 0 mm 3 mps 733 mmHg 65%
23:00 +20°C° 0 mm 3 mps 733 mmHg 65%
Mostrar más

Necesitamos Su Consentimiento

Meteoprog y nuestros Proveedores de Servicios pueden almacenar y acceder a sus datos personales como cookies, identificadores de dispositivo u otras tecnologías similares de su dispositivo y procesar dichos datos para personalizar contenido y anuncios, además de ofrecer funciones de redes sociales y analizar el tráfico.

  • Almacenar y/o acceder a información en su dispositivo

    Se puede almacenar o acceder a cookies, identificadores de dispositivo u otra información de su dispositivo para los fines anteriormente indicados.

  • Anuncios y contenido personalizados, medición de anuncios y contenido, percepciones del público, y desarrollo de productos

    Los anuncios y el contenido pueden personalizarse en base a su perfil. Se pueden añadir más datos para personalizar mejor los anuncios y contenidos. Se puede medir el rendimiento de los anuncios y contenidos. Se puede obtener la percepción sobre el público que ha visto los anuncios y contenidos. Dichos datos pueden usarse para desarrollar o mejorar la experiencia del usuario, sistemas y software.

Al hacer clic en ‘Estoy De Acuerdo’ usted permitirá el uso de las cookies, identificadores de dispositivo, balizas web u otras tecnologías similares indicadas. Su configuración puede cambiarse desde el navegador de su dispositivo.

Para ciertos fines, los intereses legítimos pueden ser considerados por encima del consentimiento. Puede leer más sobre ello en nuestra Política de Privacidad y Cookies.